Wind_Speed
30 31 31 30 29 29 30 30 31 32 30 29 29 28 28 27 28 29 26 26 28 27 24 24 23 20 20 20 18 18 16 14 13 14 15 15 14 14 14 15 16 16 17 18 18 18 18 18 19 19 20 20 21 22 23 25 26 27 28 28 28 30 29 28 28 29 29 29 28 28 28 28 29 29 28 27 28 29 30 28 28 29 30 30 32 31
31 32 32 32 32 32 32 32 32 32 30 30 30 28 28 27 29 29 27 28 30 28 26 26 25 21 20 21 21 20 18 15 15 16 16 16 16 16 16 17 17 17 17 18 18 18 18 18 19 20 21 22 23 23 24 25 27 28 29 29 29 30 30 28 27 27 27 28 28 28 28 28 28 28 28 28 28 30 31 30 29 30 31 32 33 32
32 33 34 34 33 33 33 33 33 33 32 31 29 28 28 28 30 30 29 30 31 29 27 28 26 22 21 22 22 22 20 17 18 18 17 17 17 17 18 19 19 18 18 19 19 19 19 19 20 21 22 24 24 24 25 26 27 28 30 30 30 30 29 28 27 26 26 27 27 27 27 27 27 27 27 28 28 30 31 31 31 32 32 32 33 33
33 34 35 35 34 34 35 35 35 35 33 31 30 29 29 29 31 32 31 31 30 30 29 29 28 24 23 23 22 23 22 19 19 20 18 18 18 18 19 20 20 20 19 20 19 19 20 21 21 22 24 25 25 25 26 27 28 29 31 32 32 30 29 28 27 26 26 26 26 26 26 26 26 26 27 28 28 29 30 32 32 32 32 32 33 33
34 35 36 36 36 36 37 37 37 35 33 32 31 31 30 31 33 33 32 31 31 32 31 30 30 26 23 25 24 24 23 21 21 22 20 19 20 20 21 21 21 21 20 21 21 21 21 22 23 24 25 26 26 26 27 28 29 30 31 33 34 32 30 28 27 26 25 25 26 26 26 26 26 27 27 28 29 29 30 31 31 31 32 32 32 33
36 37 37 37 38 38 39 38 37 36 35 33 32 31 31 32 34 32 33 33 33 33 31 30 32 28 25 26 25 23 23 22 23 23 21 21 22 23 23 22 22 22 22 22 23 23 23 22 23 25 27 27 27 27 27 28 30 31 32 33 34 34 31 29 28 27 27 26 26 26 26 26 26 26 27 29 29 29 30 31 31 31 32 31 32 33
38 38 37 37 37 38 40 39 39 38 36 35 34 33 33 33 34 33 34 36 34 34 32 30 33 33 27 26 25 24 25 25 25 24 22 22 24 26 25 23 22 23 24 25 25 26 25 23 24 26 27 28 28 28 28 29 30 32 33 34 35 35 33 31 29 29 28 28 27 27 27 27 26 26 27 28 30 29 30 31 32 32 32 32 33 33
38 38 38 37 37 39 40 41 40 39 39 38 36 35 34 34 35 35 36 37 35 34 33 31 34 37 31 24 22 25 28 28 26 24 23 24 26 27 27 25 25 25 26 27 28 28 27 26 26 27 28 29 29 28 29 30 31 32 33 34 35 36 35 33 31 30 30 30 29 29 29 28 27 27 27 28 29 30 30 31 33 32 33 33 33 34
39 39 39 38 38 40 40 42 42 41 41 40 39 37 36 35 37 37 37 37 36 35 34 33 33 39 37 26 21 25 30 29 25 23 25 26 27 27 28 28 28 28 28 29 29 29 29 28 29 29 29 30 30 30 30 31 32 33 34 35 36 37 37 36 34 32 32 32 32 31 31 30 29 28 28 28 29 30 31 32 33 33 34 34 34 34
41 41 41 41 41 41 41 42 43 43 43 42 41 40 38 37 38 39 38 38 38 37 35 34 34 38 40 31 24 26 29 28 25 25 27 27 28 29 29 30 31 31 31 31 31 31 31 31 31 30 29 31 32 31 31 32 33 34 34 35 36 37 37 37 36 35 34 33 33 33 32 31 30 30 29 29 29 30 32 32 33 34 35 35 35 35
43 43 43 42 42 42 42 43 43 43 44 43 43 43 41 40 40 41 40 39 40 39 36 36 35 36 40 36 28 27 28 28 27 27 27 28 29 30 31 31 31 32 32 33 33 33 33 33 33 31 31 32 33 33 33 34 34 35 35 35 36 36 37 38 38 36 36 35 35 34 33 33 32 31 31 30 30 31 33 34 34 35 35 35 35 35
46 45 45 44 43 43 43 43 44 44 44 44 44 45 44 43 43 43 42 42 42 40 37 38 37 37 39 38 33 29 28 28 29 28 27 28 30 32 33 32 32 32 34 35 35 35 36 36 34 33 33 34 35 35 35 36 36 36 36 35 36 36 37 38 38 38 37 37 37 37 35 35 34 33 33 32 32 33 34 35 35 36 37 36 36 36
48 47 46 45 44 44 44 45 45 45 46 46 46 46 46 45 46 45 44 43 43 41 40 41 41 41 39 36 37 37 33 30 29 29 28 29 31 34 34 33 33 34 36 37 37 37 38 38 37 36 36 37 37 37 38 38 38 38 38 36 36 36 37 37 38 39 39 39 39 39 38 37 36 36 34 34 34 34 35 37 37 37 37 37 37 37
50 50 49 48 47 46 46 46 46 47 47 47 47 46 46 45 46 47 46 46 46 43 43 44 45 43 38 35 37 40 38 33 30 30 31 31 33 35 35 34 34 36 38 38 39 39 40 41 40 39 39 38 38 39 40 40 40 40 40 39 38 37 37 37 38 40 40 41 40 40 39 38 38 37 36 36 35 36 36 37 38 37 37 36 36 37
53 53 51 50 49 47 47 47 46 47 47 47 47 47 47 46 47 48 49 49 48 46 46 47 46 43 39 35 37 40 39 37 35 34 35 35 36 36 35 35 35 37 40 40 40 41 43 43 43 42 42 40 40 41 42 42 43 43 42 42 41 39 39 38 38 40 41 42 42 41 41 40 39 39 38 38 37 37 36 37 38 38 37 36 37 38
54 54 52 51 50 48 48 48 48 48 49 49 49 51 50 49 48 49 51 51 50 50 49 48 47 43 41 40 39 40 40 39 39 39 39 39 38 38 37 37 38 39 41 42 43 44 45 45 44 44 44 44 44 44 44 44 45 45 45 44 43 42 41 40 40 40 41 43 44 43 42 41 41 41 41 40 39 38 37 37 37 38 37 37 38 39
54 54 53 52 50 49 48 48 49 50 50 50 51 52 50 49 49 49 51 50 51 53 52 50 48 45 43 44 43 41 41 41 43 43 42 42 42 41 40 40 41 41 42 43 44 45 46 46 46 46 47 47 47 46 46 47 47 47 46 46 46 45 44 43 42 41 41 43 44 44 43 41 41 42 42 42 41 40 39 38 38 38 38 39 39 40
53 53 54 53 52 50 48 48 49 50 50 51 51 50 49 50 51 51 52 52 53 56 54 51 50 46 45 45 43 41 42 43 45 45 45 46 46 45 44 44 43 42 43 45 45 47 47 48 49 49 49 50 49 49 49 50 50 49 48 48 49 48 46 45 44 43 42 42 43 44 44 42 41 42 43 43 43 42 41 41 40 39 39 40 40 40
52 53 55 56 55 53 50 48 49 51 52 53 52 51 51 53 54 54 55 55 55 57 56 52 51 49 45 43 43 44 44 46 47 47 48 50 50 49 48 48 47 46 47 48 49 49 49 50 51 51 51 51 51 52 53 53 52 51 50 50 51 50 47 47 47 46 44 43 42 43 43 43 42 42 42 43 43 43 43 43 41 40 40 40 41 41
50 52 55 57 57 55 52 51 51 52 53 54 53 53 53 53 55 56 56 56 55 57 57 54 53 51 44 41 45 47 46 48 48 49 50 52 52 52 52 52 51 51 51 51 52 52 52 53 53 52 53 53 54 55 55 55 54 52 53 54 54 52 49 48 49 49 48 45 42 41 43 43 43 43 43 43 43 43 43 43 42 42 42 42 42 43
48 51 54 57 58 58 57 55 53 51 51 52 52 52 52 52 53 55 56 56 55 56 58 57 57 52 43 42 47 48 47 48 48 50 51 53 55 55 54 54 55 54 54 54 54 55 56 56 55 55 55 55 56 56 56 56 55 55 56 57 56 54 51 50 52 52 51 47 42 40 42 43 44 44 44 44 44 44 44 43 43 44 44 44 44 44
48 51 53 55 57 58 57 55 52 51 51 51 52 53 53 52 52 54 56 57 56 57 58 59 61 54 44 45 49 49 50 49 49 51 52 54 56 56 56 56 57 57 57 57 57 57 58 58 57 57 57 57 56 55 55 56 56 57 59 59 58 55 53 53 54 53 51 47 42 40 41 42 43 44 45 45 45 45 45 45 45 45 45 46 46 45
48 49 52 54 56 57 56 55 54 54 54 53 54 55 55 56 57 57 59 58 58 59 59 60 64 55 44 45 48 49 51 51 51 53 53 53 55 57 58 58 58 58 58 58 59 59 60 59 58 58 58 58 56 54 55 57 58 59 60 60 59 58 56 55 55 54 51 46 42 40 40 41 42 42 43 45 45 46 47 47 47 47 47 47 46 46
50 52 54 56 57 58 59 59 58 57 57 58 58 58 58 59 60 59 60 59 59 62 61 62 67 58 45 46 48 49 52 53 53 54 53 53 55 57 59 59 59 60 59 60 60 60 60 59 59 60 59 58 57 56 57 58 59 60 61 61 60 60 59 57 55 52 48 44 42 40 40 40 40 40 40 42 44 46 47 48 48 48 48 48 47 48
53 54 55 56 58 60 61 62 62 61 61 61 60 59 58 58 60 60 60 60 62 64 64 66 70 61 48 47 50 51 54 56 56 56 55 55 56 57 59 60 61 60 60 61 60 60 61 61 61 61 60 58 57 58 59 60 60 61 61 61 61 61 61 58 53 49 45 42 40 41 41 41 40 40 40 41 43 44 45 47 48 49 49 49 49 49
54 56 57 58 60 62 62 63 64 62 61 61 60 59 58 56 58 59 60 61 63 63 63 66 68 62 52 51 52 53 56 58 58 58 57 57 58 59 60 61 62 61 59 60 60 60 63 65 64 62 60 59 59 60 61 61 61 61 61 61 61 61 60 56 51 46 42 39 39 40 42 42 41 42 42 43 44 45 45 46 47 48 49 49 50 50
56 57 59 61 63 63 63 63 64 63 62 62 60 59 58 57 57 58 59 63 62 61 63 64 63 61 58 55 54 53 55 58 59 59 59 59 59 60 60 60 60 59 58 59 61 62 64 67 66 63 61 61 62 63 63 62 63 63 62 62 61 59 57 54 49 43 39 37 37 39 42 42 41 42 44 45 46 46 46 46 47 48 49 49 50 50
56 58 58 60 62 62 63 64 66 65 64 63 61 59 59 58 58 59 61 61 60 62 66 63 59 62 61 57 55 54 54 56 57 58 59 59 59 61 61 60 59 59 59 60 62 63 63 65 66 66 65 64 64 65 65 65 65 64 63 62 59 57 55 52 47 41 37 36 37 38 41 42 42 43 45 46 47 47 46 46 46 47 47 49 49 50
54 56 56 57 57 58 59 62 63 64 64 64 63 62 61 60 60 61 61 60 59 63 66 61 59 63 62 58 57 55 55 55 55 56 57 59 60 61 61 62 62 62 62 63 63 63 62 63 65 67 67 67 67 67 67 66 66 65 64 61 58 55 53 51 47 43 40 39 39 39 41 43 44 44 44 45 46 47 46 46 46 47 47 48 48 49
51 51 51 53 55 55 55 56 57 59 61 63 64 65 64 63 62 62 62 61 62 65 65 62 63 65 62 58 57 56 55 55 55 57 58 59 60 61 62 64 64 64 65 65 65 65 64 65 66 68 69 68 67 66 66 65 64 62 61 58 55 53 52 51 49 46 44 43 42 42 42 43 45 45 45 45 46 47 47 47 48 48 49 49 49 50
51 50 48 49 53 54 53 52 52 54 56 59 61 61 62 63 64 64 65 64 65 65 65 64 66 67 62 59 59 57 57 58 59 60 61 61 62 63 64 65 66 68 68 67 66 66 67 67 66 65 65 64 63 62 62 61 59 57 56 55 53 51 51 52 52 50 47 46 45 45 43 43 44 44 44 46 47 47 48 48 49 50 50 50 50 50
52 51 50 50 52 54 52 52 53 53 55 58 58 57 58 60 62 62 62 62 63 64 64 66 69 68 63 60 60 60 60 62 63 63 63 62 62 63 65 66 67 69 68 65 64 63 63 63 61 59 58 58 59 59 58 56 55 54 53 52 52 51 51 52 52 52 51 49 48 47 46 45 44 43 43 45 46 47 48 49 49 50 50 50 50 50
55 54 54 54 55 54 51 52 54 55 58 61 58 54 54 57 58 58 58 58 59 60 62 64 64 62 59 58 58 58 58 58 58 57 58 57 57 59 62 62 61 61 60 60 59 58 58 58 57 56 56 55 56 56 55 55 54 53 53 52 52 52 52 52 52 53 53 53 52 51 49 48 46 44 44 45 46 47 47 47 48 48 48 49 49 49
63 61 60 59 60 56 52 53 57 60 62 61 54 50 52 54 56 57 58 58 57 57 59 60 58 56 54 52 50 49 49 50 50 50 50 51 53 57 59 57 55 55 56 58 58 57 57 56 56 56 55 55 55 55 55 54 53 53 53 53 53 53 53 53 53 54 54 55 56 55 54 52 49 48 48 48 49 48 47 47 47 47 47 48 48 49
67 67 65 65 64 61 57 57 62 66 64 57 52 51 52 53 55 57 58 57 56 55 56 56 55 52 49 48 47 47 48 49 49 48 47 49 53 56 57 55 54 55 58 59 59 57 57 56 57 57 57 56 56 55 55 54 54 53 53 53 53 53 53 54 54 56 57 58 58 58 57 56 54 53 52 52 52 51 49 48 48 48 48 48 49 50
69 69 67 66 65 63 62 65 68 68 63 59 56 54 53 54 57 59 60 59 57 56 56 56 56 53 50 48 48 48 50 51 52 51 50 51 53 55 56 55 56 59 60 59 59 58 58 58 58 58 57 57 56 55 55 54 54 54 54 54 54 54 54 55 57 58 60 60 60 60 60 59 57 57 56 55 54 53 51 51 50 50 50 50 50 51
69 69 68 66 65 65 66 69 71 69 67 64 59 54 54 58 60 61 63 62 59 57 57 57 56 55 53 52 51 51 52 55 56 56 54 53 54 55 56 56 58 60 60 59 59 59 59 59 59 59 58 58 57 57 56 55 55 55 55 55 55 56 57 58 60 61 62 61 61 61 61 60 60 59 58 58 56 55 54 53 52 51 51 51 52 52
68 69 69 69 69 68 67 69 72 75 75 68 59 54 57 61 64 66 68 68 64 61 60 60 59 57 55 54 54 55 57 60 62 61 57 55 55 56 56 57 59 60 61 61 61 60 60 60 61 60 60 59 58 58 57 57 57 56 56 57 58 59 60 61 62 62 62 62 61 61 62 62 61 61 60 59 59 58 57 55 54 53 53 53 54 54
69 68 68 69 71 70 68 68 71 77 79 74 67 64 64 66 68 69 71 71 67 64 63 64 64 63 62 61 60 59 60 63 65 63 59 57 58 57 58 59 60 61 62 63 63 63 62 62 62 63 63 62 60 59 59 59 59 59 59 60 61 62 62 63 63 63 62 61 61 61 62 62 62 62 61 60 60 59 58 58 57 56 56 56 57 57
70 70 69 70 71 71 70 70 71 74 77 76 72 70 69 70 69 67 67 68 67 65 65 66 67 67 66 65 64 64 64 65 65 63 62 62 62 61 60 60 61 61 62 63 64 65 64 64 64 63 63 62 62 61 61 62 62 63 63 64 64 64 64 64 64 64 64 64 63 63 63 62 62 62 61 61 60 60 60 59 59 59 59 59 59 59
66 68 70 70 71 70 69 69 71 73 74 74 71 70 70 70 70 68 67 67 67 68 69 70 70 69 67 65 64 63 64 66 68 67 67 67 66 65 63 63 63 62 62 62 62 63 64 65 65 65 64 63 63 63 64 65 66 66 67 67 67 67 66 66 66 66 65 65 65 64 63 62 61 61 61 60 60 60 60 60 60 61 61 61 61 61
61 61 62 63 64 64 63 64 65 66 68 69 68 70 71 72 73 75 75 74 72 72 72 74 74 73 70 69 67 65 64 65 66 67 68 69 69 69 68 67 67 66 66 65 64 63 63 64 65 66 66 65 65 65 66 67 68 68 69 69 69 68 68 67 67 67 66 66 65 64 63 63 62 61 61 60 61 61 62 62 62 62 63 63 63 63
61 61 60 58 57 56 56 56 56 57 58 58 59 62 66 67 68 68 68 67 67 66 67 70 73 75 75 74 74 73 72 71 70 69 69 69 70 70 69 69 69 69 69 70 69 68 68 68 68 69 69 68 68 68 68 69 69 70 70 70 70 70 70 69 69 69 68 68 67 66 65 65 64 63 63 63 63 64 65 65 65 64 64 64 65 66
63 64 64 62 60 59 58 57 56 56 55 55 55 57 58 58 59 58 56 55 54 53 54 57 61 65 69 72 73 73 74 75 75 75 75 75 74 74 73 73 72 72 73 73 73 72 72 72 72 72 72 72 73 73 73 73 73 73 73 72 72 72 72 71 71 71 71 71 70 69 69 69 68 68 68 68 68 68 68 67 67 66 66 66 67 69
64 64 64 65 64 64 64 63 61 59 58 58 60 60 59 58 58 57 57 56 55 52 51 51 54 57 61 65 67 68 69 70 72 73 75 77 77 78 78 79 78 78 77 77 77 76 75 75 75 75 75 76 77 78 78 78 77 76 76 76 77 77 76 76 75 74 74 74 74 74 73 73 73 73 72 72 72 71 71 69 68 68 68 69 70 71
65 65 66 67 67 67 67 66 64 63 62 61 62 63 64 63 62 61 61 61 59 56 54 53 53 54 57 60 62 63 63 64 64 65 66 68 70 72 75 77 78 79 79 79 79 79 79 79 79 80 80 80 81 82 82 82 81 80 80 81 81 82 82 81 80 79 78 78 78 78 77 76 75 73 72 71 71 71 71 70 70 71 71 71 71 72
69 69 69 70 69 69 69 67 65 65 65 64 64 65 66 66 66 67 68 67 64 61 59 58 55 54 54 56 57 58 57 57 58 58 58 59 61 63 65 68 71 73 75 75 76 77 78 79 79 80 81 81 81 82 82 83 83 83 83 84 84 85 85 85 84 83 82 81 80 79 77 75 73 71 70 69 69 70 71 72 73 72 72 71 71 69
72 72 72 72 72 72 71 69 67 67 67 68 68 68 67 67 68 69 70 71 69 66 64 63 61 58 56 55 55 56 57 56 57 58 57 57 57 58 60 62 64 65 67 68 69 70 71 72 72 73 74 75 75 76 77 78 79 80 82 83 84 85 86 86 86 86 85 84 83 81 78 75 73 71 70 70 71 72 73 74 73 70 68 67 65 62
73 74 74 74 74 75 74 72 70 70 72 72 72 71 70 69 70 71 72 72 72 71 70 68 67 65 63 61 61 63 65 66 66 65 63 61 59 59 59 60 61 61 61 62 62 63 64 64 65 66 67 68 69 71 72 73 74 75 76 77 78 80 81 82 82 83 82 82 80 78 76 74 72 71 71 71 72 72 71 69 65 62 59 58 56 54
74 74 74 74 76 76 76 74 74 75 77 76 75 74 72 72 74 75 75 75 75 76 76 76 76 75 75 74 74 75 76 76 75 74 71 68 65 62 61 61 60 59 58 58 57 58 58 59 60 61 61 62 63 65 66 66 67 67 66 67 68 68 69 69 69 69 69 68 67 67 67 67 67 66 66 65 64 62 58 55 52 51 49 48 47 46
73 72 72 73 75 76 75 74 75 77 79 79 78 77 77 77 78 78 78 78 79 80 81 81 82 82 82 82 82 81 80 78 77 76 75 72 68 66 64 63 62 60 59 58 57 57 57 59 59 59 59 59 58 58 58 58 57 55 54 55 56 56 56 57 58 57 56 55 54 54 54 53 52 51 51 50 48 46 45 44 44 43 42 42 42 43
Wind_Direction
229 228 228 227 227 228 229 229 231 232 233 236 237 238 239 239 241 243 241 239 241 242 241 241 240 235 236 240 242 241 242 245 248 252 259 265 271 277 279 282 284 286 289 295 300 300 303 307 308 309 309 309 310 310 311 311 311 311 312 313 311 309 308 305 300 296 294 292 291 289 289 289 288 289 289 287 284 283 283 282 282 282 284 286 287 288
231 229 229 229 229 228 229 230 232 235 236 237 238 239 240 241 243 244 243 243 243 242 241 241 241 235 234 237 241 244 244 246 249 252 259 267 274 279 282 284 285 288 292 295 296 298 303 306 307 308 309 309 310 311 312 312 312 312 312 313 312 310 308 304 299 295 293 291 290 290 289 288 288 288 287 286 283 282 282 282 280 280 281 282 284 286
233 231 230 230 230 230 231 232 234 236 237 238 240 241 241 242 245 245 244 244 245 244 242 242 242 236 234 236 239 246 248 248 251 254 259 266 272 278 281 284 286 290 292 292 293 297 302 305 306 307 308 309 311 313 314 313 312 312 312 312 312 311 308 304 299 295 293 292 293 292 290 288 287 286 285 283 281 280 280 279 278 278 279 280 282 285
235 234 232 231 232 233 232 232 234 236 237 239 241 242 243 244 246 247 246 246 247 246 243 243 244 238 235 237 237 243 249 250 255 259 261 267 272 275 278 281 285 287 288 290 293 296 301 304 304 306 307 309 311 313 315 314 313 312 311 311 312 311 309 304 299 295 293 293 294 294 292 289 286 284 282 281 280 279 277 277 278 279 279 280 281 283
236 235 234 233 233 234 234 234 235 237 238 240 241 243 245 246 247 247 248 247 246 246 244 244 247 241 236 239 238 240 248 251 257 261 264 270 273 275 277 280 283 285 287 289 291 294 298 301 302 305 306 307 309 313 315 315 314 312 311 311 311 311 310 305 299 294 292 293 294 294 293 290 287 285 283 282 282 281 280 280 280 280 279 279 280 281
237 236 235 235 235 235 235 236 238 239 240 241 242 244 245 246 247 248 248 247 245 246 246 247 252 248 236 238 241 242 247 250 255 261 265 270 274 275 277 279 283 287 289 289 289 292 295 297 299 302 304 305 308 312 316 316 315 313 311 310 309 310 310 307 300 295 293 292 293 294 293 291 289 286 285 284 284 283 283 282 281 280 280 279 279 280
239 239 238 238 238 238 238 239 240 241 242 243 243 244 245 246 247 247 247 247 245 246 247 249 256 256 243 236 241 246 249 250 253 260 267 272 274 276 277 280 284 286 288 287 288 291 293 294 295 299 301 302 306 311 314 315 315 313 312 310 308 308 309 308 302 296 293 291 291 291 291 291 290 286 284 283 284 283 283 282 281 281 280 280 280 280
242 242 242 241 241 241 240 241 241 242 243 243 243 243 245 247 248 246 246 248 247 246 247 247 255 261 254 238 236 245 250 251 252 259 266 269 272 276 280 284 284 284 284 284 287 290 291 291 293 296 298 300 304 308 310 311 312 313 312 311 308 307 308 308 304 298 293 291 290 289 289 290 289 286 284 283 283 282 282 281 281 281 281 281 281 281
243 243 243 241 241 241 241 242 242 243 243 244 244 244 244 246 248 248 247 248 248 247 248 248 252 261 262 249 238 244 250 252 255 260 263 265 270 276 280 282 283 283 283 284 286 287 288 289 292 295 296 298 301 304 305 308 309 311 312 312 310 307 307 307 305 300 295 292 291 289 289 288 287 285 283 282 281 281 281 280 281 281 281 281 280 280
243 244 244 243 242 242 242 243 244 244 244 244 245 245 245 245 247 248 248 248 249 248 249 250 250 258 264 260 247 245 252 256 257 259 262 266 270 273 276 278 280 282 283 283 284 285 286 288 290 292 294 296 299 300 301 304 307 311 312 312 311 308 307 306 305 302 297 292 290 290 289 287 285 284 282 281 280 280 280 280 281 281 281 281 281 281
244 244 244 244 243 243 244 244 245 246 246 245 246 246 246 246 247 248 249 248 249 249 251 251 251 257 264 264 254 247 251 257 258 259 262 266 268 270 272 274 277 279 281 282 283 285 286 286 288 290 292 295 296 296 298 301 304 308 311 311 310 309 307 306 305 303 298 293 290 288 287 286 284 282 281 281 280 280 280 280 280 281 281 281 281 281
244 244 245 245 245 244 245 245 246 247 248 248 247 248 248 248 247 248 249 248 249 250 253 254 252 253 259 264 265 259 253 253 257 260 261 263 266 269 271 273 276 278 279 280 282 283 284 285 287 289 292 294 293 292 295 298 300 304 307 308 309 308 307 305 305 303 299 294 290 286 285 285 283 281 280 280 280 279 279 280 280 280 281 281 281 280
246 246 246 246 246 246 246 246 246 247 248 249 248 248 248 248 249 248 249 249 250 250 252 254 253 253 256 263 268 267 262 257 259 261 261 261 263 267 270 273 276 277 278 279 280 282 283 284 286 288 291 291 289 289 293 297 298 301 303 304 306 307 306 305 303 302 300 295 291 287 285 284 283 282 280 280 280 279 278 279 279 279 280 281 281 281
245 246 246 246 246 246 246 246 247 247 247 248 248 249 249 249 250 250 250 250 250 249 250 253 254 257 260 262 265 268 269 268 266 265 264 262 263 266 269 272 274 275 276 277 278 280 281 283 286 288 289 288 286 287 292 295 296 298 300 301 303 305 307 306 303 300 299 296 292 288 285 284 283 281 280 280 279 278 277 278 278 279 280 281 281 280
245 246 246 247 247 246 247 247 247 247 246 247 248 249 248 249 251 252 251 251 251 249 249 251 254 261 266 265 265 268 270 270 270 268 266 265 265 267 269 271 271 273 274 275 277 278 280 283 285 286 286 285 284 286 290 293 295 296 297 299 302 305 307 307 304 300 297 295 294 290 286 284 282 280 279 279 279 278 277 278 279 280 281 281 280 280
247 247 247 248 247 247 247 246 246 246 246 246 247 248 249 250 252 252 252 252 253 252 250 250 254 261 266 266 265 267 269 271 270 268 267 267 268 268 268 268 268 269 271 274 276 277 278 280 281 283 283 284 284 285 288 291 293 294 296 298 301 303 305 307 307 302 297 295 294 291 288 285 283 281 279 279 278 277 277 278 279 280 280 280 279 279
247 247 246 246 247 247 247 247 247 247 247 247 248 249 252 253 252 253 254 254 254 254 252 251 253 257 260 263 265 266 270 272 271 271 271 271 270 269 269 268 267 267 269 270 272 274 275 277 279 280 282 283 284 285 287 290 292 293 294 297 300 301 304 307 308 305 299 295 293 292 289 286 284 281 280 279 278 278 278 278 279 279 280 279 279 279
247 247 245 244 245 245 245 246 246 247 247 248 249 251 252 252 252 253 253 253 253 255 253 252 254 256 257 261 265 266 268 270 272 274 275 274 273 272 271 270 270 270 271 271 272 273 275 277 278 280 282 283 284 285 288 290 291 292 293 296 298 299 303 306 307 306 301 295 291 290 289 286 283 281 279 278 278 278 279 279 279 279 278 278 278 278
246 247 246 244 244 244 243 243 244 246 247 248 249 249 248 249 251 251 252 253 254 256 256 254 255 256 256 260 265 265 266 267 268 270 271 272 273 273 273 273 273 273 273 274 275 276 277 278 279 281 282 283 284 286 288 289 290 291 293 294 296 298 302 304 304 305 303 297 289 287 286 285 282 280 279 278 277 278 279 280 279 278 277 277 277 277
246 247 247 246 245 244 243 243 244 247 248 249 249 248 248 249 251 251 252 253 254 256 257 256 254 254 256 259 262 262 263 265 267 268 269 271 272 273 274 275 275 276 276 276 277 277 278 279 280 281 281 283 284 286 287 289 289 291 292 294 295 298 301 302 302 303 303 298 288 283 283 282 281 279 278 277 277 278 278 278 278 277 277 278 278 278
245 245 246 246 245 245 244 244 246 247 248 248 248 248 249 250 251 253 253 253 254 255 257 257 254 254 255 257 259 261 262 264 266 268 269 270 272 273 274 275 276 277 277 278 278 279 279 278 279 279 280 282 283 285 287 288 289 291 292 293 295 297 299 300 301 301 302 298 288 280 278 278 277 277 277 277 277 277 277 277 277 277 279 280 279 279
243 245 246 246 246 246 247 247 246 245 245 246 247 247 248 249 250 251 252 252 253 253 254 256 255 255 255 255 257 260 261 262 264 266 268 270 272 274 275 275 275 276 277 277 278 278 279 279 279 280 281 281 282 284 286 287 289 290 291 292 294 296 298 299 300 300 299 294 285 277 275 274 274 275 276 277 277 277 277 276 276 277 279 280 280 279
242 243 245 246 246 246 246 246 245 244 243 243 244 245 247 247 248 249 250 251 251 251 252 253 254 256 256 255 256 260 261 262 263 265 267 269 272 274 275 275 275 275 275 276 276 277 278 280 281 281 282 282 283 284 284 285 287 288 289 291 293 295 297 298 299 298 296 290 281 276 275 274 274 274 275 276 277 277 276 275 276 278 279 280 279 279
240 241 242 244 245 245 244 245 244 244 244 243 244 245 245 246 248 248 249 250 250 250 251 252 253 256 258 257 258 261 262 263 264 265 266 268 269 271 272 273 274 274 275 275 276 277 279 280 281 281 281 283 284 284 283 284 284 285 287 289 292 295 297 298 297 295 293 287 278 273 274 275 275 275 275 275 275 275 276 276 276 277 278 278 278 277
241 241 242 243 244 244 244 246 246 246 246 246 246 246 245 246 248 248 249 249 249 250 252 253 254 258 259 257 258 260 262 263 264 265 266 266 267 268 269 270 271 272 274 276 278 280 281 280 279 279 280 281 282 282 282 283 283 285 287 289 292 295 296 297 294 290 289 287 279 274 273 274 274 275 275 274 274 274 274 275 275 276 276 276 275 276
240 241 241 242 243 244 246 248 248 248 249 249 249 248 248 248 249 251 252 252 252 254 256 257 259 261 259 256 256 257 260 262 264 265 265 266 266 266 267 268 270 272 274 276 278 279 278 278 277 278 280 281 281 281 282 283 284 286 288 291 293 294 294 292 289 287 288 287 281 277 275 274 273 273 274 274 274 275 275 275 275 275 275 275 275 276
240 240 241 242 243 245 246 248 249 248 248 249 249 249 249 249 249 250 251 253 256 258 257 258 262 264 260 256 255 256 258 261 262 263 264 264 265 266 266 268 269 271 272 273 274 274 275 277 279 281 282 282 283 283 284 285 287 288 290 291 291 291 289 287 286 288 289 287 284 281 278 276 274 273 274 275 276 277 277 277 276 275 275 275 275 275
242 242 242 243 245 246 247 248 250 250 250 251 251 250 251 251 251 251 251 254 258 259 259 260 263 264 262 258 257 256 257 259 261 263 265 266 266 266 266 267 267 268 269 269 270 272 274 278 281 282 283 283 284 285 286 288 289 289 289 288 288 286 285 285 287 291 292 291 289 285 281 279 276 274 275 276 277 278 278 277 276 275 274 274 274 275
246 245 244 245 247 247 248 250 252 253 254 254 254 254 253 253 253 254 255 256 258 259 261 262 261 262 262 260 259 259 259 259 261 263 265 267 267 268 268 268 268 268 268 268 269 271 274 277 279 281 282 283 284 285 286 287 287 286 286 285 284 284 285 287 289 292 294 296 292 286 281 279 278 277 276 276 277 278 278 276 275 274 274 274 274 275
249 248 247 247 248 247 247 249 252 254 255 256 256 256 256 255 255 256 257 258 258 259 261 261 260 260 262 263 262 261 261 263 262 262 263 265 267 268 269 269 269 270 270 270 271 273 275 276 277 279 280 282 283 283 284 284 284 284 283 283 284 285 287 289 291 294 297 297 292 286 281 279 278 278 277 275 274 275 275 275 275 275 275 276 277 277
246 247 245 244 245 245 245 246 249 250 252 253 254 255 256 257 256 255 257 258 259 260 261 262 262 262 264 266 266 264 264 264 263 262 263 264 266 268 269 271 272 272 272 272 273 274 274 274 275 276 278 280 281 281 281 282 282 282 282 283 284 286 288 290 292 296 298 297 292 288 284 280 278 277 274 272 271 272 273 273 273 274 275 276 277 278
241 242 240 238 240 241 242 244 244 245 246 245 245 247 252 257 259 259 258 258 258 260 262 262 264 265 266 265 264 264 263 263 262 263 264 266 268 270 270 270 270 271 272 273 273 273 274 274 275 275 275 277 278 279 280 281 281 282 282 282 284 285 287 289 292 294 296 295 293 290 287 283 281 278 273 270 270 270 271 272 272 273 273 274 276 277
239 238 238 238 239 239 240 241 241 241 241 240 241 247 252 257 260 260 258 258 260 262 262 261 263 265 264 262 261 262 263 263 264 264 265 266 267 267 267 267 268 270 272 273 273 273 274 275 276 276 275 275 276 278 279 280 280 281 281 281 282 284 286 288 290 291 293 294 293 291 288 286 283 280 275 273 273 272 273 273 273 273 273 274 275 277
244 244 243 243 243 240 236 236 239 241 241 241 244 249 250 252 254 256 258 261 262 262 262 263 262 261 261 261 262 264 263 262 261 259 261 263 263 263 265 266 268 270 271 271 272 273 274 275 276 277 277 276 276 277 277 278 278 278 278 278 280 282 284 286 288 290 291 292 292 292 290 288 286 283 280 279 279 279 279 278 277 276 276 276 277 278
249 250 250 250 251 247 238 237 244 246 242 241 242 242 243 248 252 254 258 259 259 259 261 264 263 261 261 262 263 262 260 259 257 256 257 259 261 263 266 267 268 268 268 269 271 272 273 274 276 277 277 277 276 276 276 276 276 275 276 277 278 280 282 284 286 289 290 291 291 290 290 289 288 286 285 284 284 284 283 282 281 281 280 280 280 280
249 251 252 254 256 254 247 244 248 248 243 240 240 239 242 248 252 255 257 256 255 258 261 263 264 262 259 259 259 259 259 258 257 257 259 261 262 263 264 265 266 267 267 268 270 271 272 274 275 276 276 276 276 274 274 274 274 274 274 275 277 278 280 283 285 288 289 289 289 288 288 288 287 287 287 286 286 285 284 284 283 283 282 282 282 282
250 251 252 254 256 257 255 253 254 255 251 245 241 241 245 248 251 256 260 257 254 258 262 264 265 265 262 261 259 257 258 258 256 259 263 264 262 261 261 262 264 265 266 268 268 270 272 273 274 275 275 274 274 273 272 272 272 272 273 274 277 279 281 284 286 287 287 287 287 286 286 286 286 286 286 286 285 284 284 284 284 283 283 283 283 283
252 252 253 254 255 256 259 259 258 260 257 248 242 245 249 251 254 259 263 260 254 255 261 263 265 266 265 264 262 259 259 258 257 260 263 262 260 260 261 261 262 264 265 266 267 268 270 271 273 273 273 272 272 271 271 271 271 271 273 275 277 280 282 284 286 286 286 286 285 285 285 285 285 284 284 284 284 283 283 283 284 284 284 284 284 284
252 253 253 255 255 255 256 258 259 260 258 252 248 249 252 257 260 263 266 264 257 256 260 262 263 265 264 263 263 262 261 261 260 260 259 257 258 259 259 260 262 263 264 265 267 268 269 269 271 271 272 271 270 269 270 270 271 272 274 276 278 280 282 284 285 285 285 285 284 284 283 283 283 283 283 284 284 283 283 284 284 284 285 285 285 285
252 253 253 254 256 256 257 258 259 260 260 257 255 255 256 260 263 264 266 266 263 261 262 262 262 263 262 262 262 261 262 262 261 259 257 257 258 259 259 260 261 262 263 264 266 267 268 269 269 269 269 269 268 268 269 271 273 275 277 278 279 280 281 283 284 284 284 284 283 283 283 283 284 284 284 285 285 285 285 285 285 285 285 285 285 285
252 253 255 256 258 259 259 261 262 263 262 260 259 259 260 261 263 263 264 265 265 264 263 262 262 262 262 262 261 261 261 262 261 260 258 258 260 260 260 260 260 260 261 262 263 265 266 267 267 267 267 267 268 269 271 273 275 277 278 279 279 280 281 282 282 282 282 281 282 282 282 283 284 284 285 285 286 286 286 286 286 285 285 285 285 285
253 254 255 257 259 260 261 263 264 265 265 264 262 261 261 261 262 263 264 265 265 264 264 263 263 263 263 262 261 261 261 261 261 261 260 260 260 261 261 260 260 260 261 261 262 262 262 263 264 265 266 267 269 271 272 274 276 277 278 278 278 278 279 280 280 280 280 279 279 280 281 281 282 282 283 283 284 284 285 285 285 285 284 284 284 285
254 255 254 254 256 258 259 260 261 263 264 264 263 262 261 261 263 265 267 268 268 267 265 265 264 265 264 264 263 263 262 261 261 261 261 261 261 261 262 262 261 261 261 262 263 263 262 262 263 264 266 267 269 270 272 274 275 275 275 275 275 276 277 278 278 278 278 278 277 278 279 279 279 279 280 281 283 283 284 283 283 283 283 283 284 284
251 253 254 254 254 254 254 254 256 260 262 262 261 260 260 261 263 265 266 266 266 265 265 264 264 265 265 265 266 265 265 264 264 263 263 262 262 262 262 262 263 263 263 263 264 264 264 263 263 264 265 267 268 270 271 272 272 272 272 272 272 273 274 275 276 276 276 276 276 276 277 278 279 278 278 279 280 281 282 281 281 281 281 282 284 285
251 252 254 255 254 254 254 254 255 257 258 258 258 258 259 260 261 262 262 261 259 259 260 261 261 263 264 265 265 266 266 266 266 265 265 264 264 263 264 264 264 264 263 263 264 264 264 264 264 264 265 267 268 269 270 271 271 270 270 270 270 271 272 274 274 275 275 275 275 276 277 278 279 279 279 278 279 279 280 280 280 281 282 283 284 285
253 254 254 254 254 254 256 257 258 258 258 257 257 257 257 258 258 259 261 261 259 256 256 256 257 259 260 262 263 264 264 265 265 266 266 266 266 265 265 265 264 264 264 264 263 263 263 263 264 265 266 267 268 269 269 270 270 269 269 269 269 270 271 272 273 274 274 275 275 276 278 279 280 280 280 279 278 278 279 280 281 283 284 284 284 285
254 254 255 255 256 256 256 257 258 260 260 260 259 258 257 257 257 257 258 259 259 257 256 255 254 254 256 259 261 262 263 265 266 266 266 266 266 266 266 266 265 265 265 265 264 264 264 264 265 265 266 267 267 268 268 269 269 269 268 268 269 269 270 272 273 273 274 275 276 277 278 279 280 280 280 279 279 279 281 283 284 284 284 283 284 284
255 255 256 256 257 258 258 258 258 259 260 260 259 258 258 258 258 257 256 257 257 257 257 256 255 254 253 255 257 260 263 265 267 267 267 266 267 267 267 266 266 266 266 266 266 266 266 266 266 267 267 267 268 268 268 268 269 269 269 269 269 269 270 271 272 273 274 276 277 278 279 280 281 280 280 279 279 280 282 283 284 284 283 283 282 280
255 256 257 258 258 259 259 260 260 259 259 258 258 258 258 259 258 257 256 255 255 255 256 256 256 256 255 255 257 261 264 267 268 268 267 266 266 266 266 266 266 266 265 266 266 267 267 267 267 267 267 268 268 269 269 270 270 270 270 271 271 271 271 272 273 274 275 276 277 278 279 280 280 279 279 279 280 281 282 282 282 281 279 276 273 271
256 257 258 259 259 259 259 260 260 259 258 257 258 258 258 258 257 256 256 255 255 254 254 254 255 257 258 260 261 264 266 267 268 268 267 266 265 264 264 264 264 263 263 263 264 266 267 268 268 268 268 269 269 270 271 271 271 272 273 273 273 274 274 274 274 275 276 277 278 279 279 279 279 278 279 279 279 278 277 276 274 271 270 270 271 273
258 259 259 259 260 259 259 259 259 259 259 258 258 257 257 257 257 257 257 257 256 256 256 256 257 258 259 261 263 264 265 266 266 265 265 264 264 263 263 263 262 261 262 262 264 266 268 270 270 270 269 270 270 271 271 271 271 271 272 272 273 273 273 273 274 275 277 279 280 279 278 278 278 277 277 276 274 274 276 277 276 275 276 279 282 285
Height
5817 5818 5821 5823 5825 5827 5828 5830 5831 5832 5835 5837 5839 5840 5842 5843 5843 5844 5847 5848 5848 5849 5851 5852 5853 5855 5856 5857 5858 5859 5861 5862 5863 5863 5864 5864 5865 5866 5866 5866 5865 5865 5864 5864 5864 5864 5864 5863 5863 5863 5862 5862 5861 5861 5860 5859 5858 5857 5856 5855 5853 5851 5850 5850 5848 5847 5846 5846 5846 5845 5845 5844 5844 5844 5843 5843 5842 5841 5841 5841 5841 5840 5839 5838 5837 5837
5814 5817 5819 5821 5822 5824 5826 5827 5829 5831 5833 5835 5836 5838 5840 5841 5841 5842 5844 5845 5845 5847 5849 5849 5850 5853 5854 5855 5856 5857 5859 5860 5861 5862 5862 5863 5863 5864 5864 5864 5863 5863 5863 5862 5862 5862 5862 5862 5861 5860 5860 5859 5859 5859 5858 5857 5856 5854 5853 5852 5851 5849 5848 5847 5846 5845 5844 5843 5843 5842 5842 5842 5841 5841 5841 5840 5840 5838 5837 5837 5837 5837 5836 5835 5834 5833
5812 5814 5816 5818 5820 5822 5823 5825 5827 5828 5830 5832 5834 5836 5837 5838 5838 5839 5841 5841 5842 5845 5847 5847 5848 5851 5852 5853 5854 5855 5856 5858 5859 5859 5861 5861 5862 5862 5862 5861 5861 5861 5861 5860 5860 5860 5860 5860 5859 5858 5858 5857 5857 5856 5856 5854 5853 5852 5851 5850 5849 5847 5846 5845 5844 5842 5841 5841 5840 5840 5839 5839 5838 5838 5838 5837 5837 5836 5835 5834 5834 5833 5833 5832 5831 5831
5809 5811 5813 5815 5818 5819 5820 5822 5823 5825 5828 5830 5832 5833 5834 5836 5835 5836 5837 5839 5841 5842 5843 5844 5845 5848 5850 5851 5852 5853 5854 5856 5856 5857 5858 5859 5860 5860 5860 5859 5859 5859 5859 5858 5858 5858 5858 5858 5857 5856 5856 5855 5854 5854 5853 5852 5851 5850 5848 5847 5846 5845 5844 5842 5841 5840 5839 5838 5837 5837 5836 5836 5835 5835 5834 5834 5834 5833 5832 5831 5831 5831 5830 5830 5829 5828
5806 5808 5810 5812 5814 5816 5817 5819 5820 5822 5825 5827 5829 5830 5832 5833 5832 5833 5835 5837 5838 5838 5840 5841 5841 5845 5848 5848 5850 5851 5852 5854 5854 5854 5856 5857 5857 5857 5857 5857 5857 5857 5857 5857 5856 5856 5856 5856 5855 5854 5853 5852 5852 5851 5851 5849 5848 5847 5846 5844 5843 5842 5841 5840 5839 5838 5837 5836 5835 5834 5833 5833 5832 5832 5831 5830 5830 5830 5829 5828 5828 5828 5827 5827 5826 5825
5803 5805 5807 5809 5811 5813 5814 5816 5818 5820 5822 5824 5826 5827 5828 5829 5829 5831 5832 5833 5834 5835 5837 5839 5838 5841 5845 5845 5847 5849 5850 5851 5852 5852 5854 5855 5855 5855 5854 5855 5855 5855 5855 5855 5854 5854 5854 5854 5853 5852 5851 5850 5849 5849 5848 5847 5846 5844 5843 5842 5841 5839 5838 5837 5836 5835 5834 5833 5833 5832 5831 5830 5829 5829 5828 5827 5826 5826 5825 5824 5824 5824 5823 5823 5822 5821
5800 5803 5805 5807 5808 5810 5812 5813 5815 5817 5819 5821 5823 5824 5825 5825 5826 5827 5828 5828 5831 5832 5835 5837 5834 5835 5841 5844 5846 5847 5847 5848 5850 5851 5852 5853 5852 5851 5851 5853 5853 5853 5852 5852 5851 5851 5851 5851 5851 5850 5848 5847 5847 5846 5845 5845 5843 5842 5841 5839 5838 5837 5836 5835 5834 5833 5832 5831 5830 5829 5828 5827 5827 5826 5825 5824 5823 5823 5822 5821 5820 5820 5819 5819 5818 5818
5798 5800 5802 5804 5806 5807 5809 5810 5812 5814 5815 5817 5819 5820 5821 5822 5822 5824 5824 5825 5827 5829 5831 5834 5832 5829 5834 5841 5845 5845 5843 5844 5847 5850 5850 5850 5849 5849 5849 5850 5851 5851 5850 5849 5848 5848 5848 5848 5848 5847 5846 5845 5844 5844 5843 5842 5841 5840 5838 5837 5835 5834 5833 5832 5831 5830 5829 5828 5827 5826 5825 5824 5824 5823 5822 5822 5820 5819 5819 5817 5816 5816 5816 5815 5815 5814
5795 5796 5798 5800 5802 5804 5805 5807 5808 5810 5811 5813 5815 5817 5818 5819 5819 5820 5821 5822 5824 5826 5827 5830 5831 5826 5826 5836 5844 5842 5840 5842 5845 5848 5848 5847 5847 5847 5847 5847 5847 5847 5847 5847 5846 5845 5845 5845 5845 5844 5844 5842 5842 5841 5840 5839 5838 5837 5836 5834 5833 5831 5830 5829 5828 5827 5826 5825 5824 5823 5822 5821 5821 5820 5819 5819 5817 5816 5815 5814 5813 5813 5812 5811 5811 5810
5791 5793 5794 5796 5798 5800 5802 5803 5804 5806 5807 5810 5812 5813 5815 5816 5816 5816 5817 5819 5820 5821 5824 5826 5829 5825 5821 5829 5839 5839 5838 5840 5843 5845 5844 5845 5845 5844 5844 5844 5844 5844 5843 5843 5843 5842 5842 5841 5841 5841 5841 5840 5839 5838 5837 5836 5835 5834 5833 5831 5830 5828 5827 5826 5825 5824 5823 5822 5821 5820 5819 5818 5817 5816 5815 5815 5814 5813 5812 5811 5810 5809 5808 5807 5807 5806
5787 5789 5790 5792 5795 5797 5799 5799 5801 5802 5803 5806 5808 5809 5811 5812 5812 5813 5814 5816 5816 5817 5821 5822 5825 5825 5819 5821 5831 5836 5837 5838 5840 5841 5842 5842 5842 5841 5841 5841 5841 5840 5840 5839 5839 5839 5838 5838 5838 5838 5838 5837 5836 5835 5834 5833 5832 5831 5830 5829 5827 5826 5824 5823 5822 5821 5820 5818 5818 5817 5816 5815 5814 5813 5812 5811 5811 5809 5808 5807 5806 5805 5804 5803 5802 5802
5783 5784 5787 5789 5791 5793 5795 5796 5797 5798 5800 5802 5803 5805 5806 5807 5808 5809 5810 5812 5812 5814 5818 5818 5821 5823 5818 5817 5824 5830 5833 5836 5836 5838 5840 5840 5839 5838 5837 5837 5837 5837 5836 5835 5835 5835 5834 5834 5834 5834 5834 5834 5832 5832 5831 5830 5829 5828 5827 5825 5824 5823 5821 5820 5818 5817 5816 5815 5814 5813 5812 5811 5810 5809 5809 5808 5807 5806 5804 5802 5802 5801 5800 5799 5798 5798
5778 5780 5783 5785 5787 5789 5791 5792 5793 5794 5795 5797 5798 5800 5801 5802 5803 5805 5807 5808 5809 5812 5814 5813 5815 5816 5816 5818 5819 5821 5826 5831 5834 5835 5836 5836 5835 5834 5834 5834 5834 5833 5832 5831 5831 5831 5830 5830 5830 5831 5830 5830 5829 5828 5827 5826 5825 5824 5823 5822 5821 5820 5818 5817 5815 5814 5812 5811 5810 5809 5808 5808 5807 5806 5805 5804 5803 5802 5800 5798 5797 5797 5796 5795 5794 5793
5773 5775 5778 5780 5783 5785 5785 5787 5789 5790 5791 5791 5793 5795 5796 5798 5799 5801 5804 5804 5805 5808 5809 5809 5809 5810 5814 5818 5817 5815 5820 5826 5829 5831 5831 5832 5831 5831 5831 5831 5831 5829 5828 5827 5827 5827 5826 5826 5827 5827 5826 5825 5825 5824 5823 5822 5821 5820 5819 5817 5817 5816 5815 5814 5812 5810 5808 5807 5806 5805 5804 5804 5803 5801 5801 5800 5799 5797 5796 5794 5793 5792 5792 5791 5790 5789
5768 5769 5773 5775 5777 5780 5781 5783 5784 5785 5785 5787 5789 5789 5791 5794 5795 5797 5798 5798 5800 5804 5805 5804 5805 5807 5810 5814 5814 5813 5815 5819 5823 5825 5825 5826 5827 5827 5827 5828 5827 5826 5824 5823 5823 5822 5822 5822 5822 5822 5821 5820 5820 5820 5819 5818 5816 5815 5814 5813 5812 5811 5810 5809 5808 5806 5804 5802 5801 5800 5800 5799 5798 5797 5796 5795 5794 5793 5792 5790 5788 5787 5787 5786 5785 5784
5762 5764 5769 5770 5771 5775 5776 5777 5778 5778 5780 5782 5783 5782 5786 5791 5792 5791 5791 5793 5796 5797 5799 5801 5802 5805 5807 5809 5810 5810 5812 5814 5816 5817 5819 5820 5822 5822 5823 5823 5822 5821 5820 5820 5819 5818 5818 5818 5818 5817 5817 5816 5815 5815 5814 5813 5812 5810 5809 5808 5807 5806 5805 5804 5803 5802 5800 5798 5796 5795 5794 5794 5793 5792 5791 5790 5789 5788 5787 5786 5784 5783 5782 5781 5780 5779
5756 5758 5762 5764 5766 5769 5771 5771 5771 5772 5775 5778 5777 5779 5785 5788 5787 5785 5786 5790 5791 5789 5793 5798 5799 5802 5805 5803 5805 5808 5809 5810 5809 5810 5813 5814 5815 5816 5817 5817 5817 5817 5817 5816 5815 5814 5813 5813 5813 5813 5812 5811 5810 5809 5809 5808 5807 5806 5804 5803 5802 5801 5800 5799 5798 5797 5796 5794 5792 5790 5790 5789 5788 5787 5786 5785 5784 5783 5782 5781 5780 5779 5777 5776 5775 5774
5749 5750 5753 5757 5760 5762 5765 5764 5764 5767 5770 5772 5773 5777 5781 5780 5779 5780 5780 5783 5784 5782 5787 5793 5795 5799 5802 5800 5802 5806 5806 5805 5804 5805 5806 5805 5806 5808 5809 5810 5811 5811 5811 5811 5810 5809 5808 5808 5807 5806 5806 5805 5804 5803 5802 5801 5801 5800 5800 5798 5797 5796 5796 5795 5793 5792 5791 5789 5787 5786 5785 5784 5783 5782 5781 5780 5779 5778 5778 5776 5775 5774 5772 5771 5770 5769
5742 5743 5746 5750 5753 5756 5758 5757 5758 5761 5764 5767 5769 5772 5773 5773 5773 5774 5773 5776 5779 5777 5780 5788 5791 5793 5797 5799 5799 5801 5802 5801 5800 5800 5800 5799 5799 5801 5802 5803 5804 5805 5804 5804 5803 5803 5802 5801 5800 5799 5799 5798 5797 5797 5795 5795 5795 5795 5794 5793 5792 5791 5792 5790 5788 5787 5786 5784 5783 5781 5780 5778 5777 5776 5775 5774 5774 5773 5772 5771 5770 5769 5768 5766 5765 5764
5737 5738 5740 5743 5746 5748 5749 5751 5754 5757 5759 5761 5763 5764 5766 5768 5768 5767 5768 5770 5773 5772 5774 5781 5784 5785 5794 5798 5796 5796 5797 5796 5796 5796 5794 5793 5793 5794 5795 5796 5797 5797 5797 5797 5796 5796 5795 5794 5793 5792 5792 5792 5791 5790 5789 5788 5789 5789 5788 5787 5786 5786 5787 5785 5783 5782 5780 5779 5778 5776 5774 5773 5772 5770 5769 5769 5768 5768 5767 5766 5765 5764 5762 5761 5760 5759
5729 5731 5733 5736 5738 5740 5742 5747 5752 5753 5753 5754 5757 5758 5761 5763 5762 5762 5763 5765 5767 5767 5769 5772 5774 5781 5792 5795 5791 5791 5792 5792 5791 5790 5789 5788 5787 5788 5789 5790 5790 5790 5790 5789 5789 5788 5787 5787 5787 5786 5786 5786 5785 5784 5783 5783 5782 5782 5781 5780 5780 5781 5781 5780 5778 5777 5775 5773 5772 5770 5769 5767 5766 5764 5764 5763 5762 5762 5761 5760 5759 5758 5757 5756 5755 5754
5724 5725 5727 5728 5731 5734 5739 5744 5746 5746 5746 5748 5750 5752 5755 5757 5757 5755 5755 5758 5760 5760 5762 5763 5764 5776 5790 5790 5787 5787 5786 5788 5788 5785 5784 5783 5782 5782 5783 5783 5783 5783 5783 5783 5782 5781 5779 5779 5779 5779 5779 5779 5779 5779 5778 5777 5776 5776 5775 5774 5774 5775 5775 5774 5772 5771 5769 5767 5766 5764 5763 5761 5759 5758 5757 5757 5756 5755 5755 5754 5753 5752 5752 5751 5749 5748
5719 5720 5720 5722 5725 5730 5733 5735 5736 5736 5739 5741 5742 5746 5750 5749 5748 5748 5747 5751 5753 5751 5756 5756 5753 5769 5786 5785 5783 5783 5781 5782 5783 5780 5780 5780 5778 5777 5776 5776 5776 5776 5777 5776 5775 5774 5772 5772 5772 5771 5771 5772 5773 5774 5773 5772 5771 5770 5768 5768 5768 5768 5768 5767 5765 5764 5762 5761 5759 5758 5757 5755 5753 5752 5751 5751 5750 5749 5748 5748 5747 5746 5746 5745 5744 5743
5712 5712 5714 5716 5719 5722 5724 5725 5727 5729 5731 5733 5736 5741 5742 5741 5742 5741 5740 5744 5744 5742 5749 5747 5742 5762 5783 5781 5778 5779 5775 5775 5776 5775 5776 5776 5775 5773 5771 5770 5770 5769 5769 5769 5768 5768 5767 5766 5765 5763 5764 5765 5765 5766 5766 5766 5765 5764 5763 5762 5762 5762 5761 5760 5758 5756 5755 5754 5753 5752 5751 5749 5748 5746 5746 5745 5744 5743 5742 5741 5741 5740 5740 5739 5738 5736
5705 5706 5709 5710 5711 5713 5716 5718 5719 5722 5724 5726 5731 5734 5735 5736 5736 5734 5734 5736 5734 5736 5743 5738 5734 5755 5778 5777 5774 5774 5769 5768 5769 5769 5771 5771 5769 5768 5766 5764 5764 5763 5763 5762 5762 5761 5759 5758 5757 5756 5757 5759 5759 5759 5758 5758 5758 5757 5757 5757 5756 5755 5753 5752 5750 5749 5749 5748 5747 5746 5745 5743 5742 5740 5739 5739 5738 5737 5736 5735 5735 5734 5733 5732 5731 5730
5698 5699 5702 5703 5703 5706 5711 5712 5712 5717 5719 5720 5725 5728 5730 5732 5730 5729 5730 5728 5726 5733 5738 5731 5731 5749 5768 5769 5767 5768 5764 5762 5763 5763 5764 5764 5762 5761 5761 5759 5759 5759 5759 5758 5757 5755 5750 5747 5747 5749 5751 5752 5752 5751 5751 5750 5751 5751 5751 5750 5749 5748 5746 5744 5743 5743 5743 5743 5741 5740 5739 5737 5736 5734 5733 5732 5731 5731 5731 5730 5729 5728 5727 5726 5725 5724
5691 5692 5695 5697 5698 5702 5707 5705 5704 5710 5713 5713 5718 5722 5723 5725 5725 5724 5722 5719 5724 5730 5728 5727 5732 5741 5753 5760 5760 5762 5760 5756 5756 5756 5755 5755 5754 5754 5754 5754 5754 5754 5754 5753 5750 5747 5743 5739 5740 5743 5744 5744 5743 5743 5743 5743 5743 5743 5743 5742 5741 5740 5738 5736 5737 5738 5738 5737 5736 5735 5733 5732 5730 5728 5726 5725 5724 5724 5724 5724 5723 5722 5721 5720 5719 5718
5684 5686 5690 5692 5694 5699 5702 5698 5698 5703 5706 5707 5711 5715 5716 5717 5718 5716 5714 5717 5724 5721 5716 5727 5734 5730 5737 5749 5753 5756 5755 5751 5750 5749 5747 5746 5747 5746 5746 5747 5748 5748 5748 5746 5743 5741 5740 5738 5737 5737 5737 5736 5736 5735 5735 5735 5735 5734 5734 5734 5733 5732 5731 5730 5730 5732 5733 5732 5731 5729 5727 5725 5724 5722 5721 5719 5718 5717 5717 5717 5716 5715 5714 5713 5712 5711
5678 5681 5687 5688 5689 5694 5696 5694 5695 5698 5701 5701 5703 5706 5709 5710 5710 5709 5710 5716 5719 5712 5710 5723 5728 5720 5725 5738 5746 5749 5747 5744 5745 5744 5740 5739 5738 5738 5739 5739 5740 5740 5739 5739 5737 5737 5738 5736 5734 5732 5730 5730 5730 5729 5728 5728 5727 5726 5725 5725 5725 5725 5724 5723 5724 5726 5726 5726 5725 5723 5721 5719 5718 5716 5715 5714 5712 5711 5711 5710 5709 5708 5708 5706 5705 5705
5672 5676 5682 5683 5682 5687 5690 5690 5692 5693 5693 5694 5695 5697 5699 5700 5702 5704 5706 5710 5711 5705 5706 5714 5715 5713 5721 5731 5737 5740 5739 5737 5738 5736 5734 5734 5732 5731 5731 5731 5732 5731 5730 5731 5732 5732 5732 5731 5729 5727 5725 5724 5724 5724 5723 5722 5721 5720 5719 5718 5718 5718 5717 5716 5717 5718 5719 5718 5716 5714 5714 5713 5711 5710 5709 5708 5706 5705 5705 5704 5703 5702 5701 5700 5698 5697
5668 5671 5676 5675 5674 5678 5684 5686 5686 5686 5687 5687 5688 5689 5690 5691 5695 5699 5701 5703 5702 5698 5701 5705 5704 5708 5720 5725 5726 5729 5731 5729 5727 5727 5727 5727 5727 5725 5724 5724 5723 5722 5722 5724 5725 5724 5724 5722 5722 5722 5720 5719 5719 5718 5717 5716 5716 5715 5714 5713 5713 5712 5710 5709 5708 5709 5710 5709 5707 5705 5705 5704 5704 5703 5702 5701 5700 5699 5698 5698 5697 5696 5694 5693 5692 5690
5663 5665 5668 5668 5665 5669 5679 5681 5679 5681 5679 5676 5679 5684 5685 5686 5689 5693 5695 5695 5694 5693 5696 5697 5695 5702 5716 5719 5714 5717 5721 5717 5716 5720 5720 5721 5722 5719 5716 5715 5714 5712 5713 5716 5716 5716 5716 5715 5715 5715 5715 5714 5713 5712 5712 5711 5710 5710 5709 5708 5707 5706 5704 5703 5701 5701 5701 5700 5698 5697 5697 5696 5696 5695 5695 5695 5694 5693 5692 5691 5690 5689 5688 5687 5685 5684
5658 5659 5661 5661 5658 5665 5675 5674 5673 5673 5666 5663 5674 5684 5686 5684 5684 5685 5686 5686 5688 5689 5688 5687 5689 5696 5704 5706 5704 5707 5711 5709 5709 5713 5714 5715 5715 5710 5705 5706 5707 5707 5707 5707 5707 5708 5709 5708 5708 5708 5708 5708 5707 5706 5706 5705 5705 5704 5703 5702 5701 5699 5698 5697 5696 5695 5694 5693 5691 5690 5689 5688 5688 5688 5688 5687 5687 5686 5686 5685 5684 5683 5682 5680 5679 5678
5651 5652 5654 5653 5651 5659 5669 5668 5663 5658 5651 5659 5678 5685 5682 5680 5678 5677 5679 5682 5684 5684 5680 5680 5684 5688 5693 5697 5699 5701 5703 5702 5701 5704 5707 5707 5704 5700 5697 5700 5703 5703 5701 5699 5700 5702 5702 5701 5702 5701 5701 5701 5701 5700 5700 5699 5699 5698 5697 5696 5694 5693 5692 5691 5690 5689 5688 5687 5685 5684 5682 5681 5681 5681 5681 5680 5679 5679 5678 5678 5677 5676 5675 5673 5672 5671
5643 5645 5646 5646 5645 5650 5660 5659 5649 5643 5649 5664 5677 5678 5675 5675 5674 5673 5674 5677 5679 5678 5675 5674 5676 5681 5686 5690 5693 5693 5693 5692 5690 5695 5701 5700 5696 5693 5693 5695 5698 5697 5693 5693 5694 5695 5695 5695 5694 5694 5694 5694 5694 5694 5693 5692 5692 5691 5690 5689 5688 5687 5686 5685 5684 5683 5682 5681 5680 5678 5677 5676 5675 5674 5673 5673 5672 5671 5671 5670 5669 5668 5667 5666 5665 5664
5637 5639 5639 5640 5638 5641 5648 5647 5639 5640 5652 5662 5667 5670 5674 5674 5671 5669 5666 5669 5674 5673 5670 5668 5669 5674 5679 5681 5684 5686 5684 5682 5681 5686 5693 5694 5691 5687 5686 5690 5691 5687 5686 5688 5688 5687 5688 5687 5687 5687 5687 5687 5687 5687 5686 5686 5685 5684 5683 5683 5681 5681 5680 5679 5679 5677 5676 5675 5674 5673 5671 5670 5669 5668 5667 5666 5665 5664 5663 5663 5662 5661 5660 5659 5658 5657
5630 5632 5633 5632 5631 5633 5635 5636 5635 5637 5643 5651 5660 5670 5674 5669 5666 5662 5655 5658 5667 5667 5664 5663 5663 5666 5670 5672 5676 5678 5675 5671 5672 5680 5688 5688 5681 5677 5678 5683 5683 5679 5679 5682 5682 5681 5681 5680 5679 5680 5679 5679 5679 5679 5679 5678 5677 5677 5676 5675 5674 5673 5673 5672 5671 5670 5669 5669 5668 5666 5665 5664 5663 5662 5661 5660 5658 5657 5656 5655 5654 5653 5652 5651 5650 5649
5622 5623 5625 5624 5624 5627 5627 5627 5628 5626 5629 5645 5661 5669 5668 5661 5658 5654 5644 5645 5658 5663 5659 5657 5656 5657 5661 5663 5665 5667 5664 5661 5664 5676 5684 5679 5668 5667 5671 5674 5674 5672 5673 5674 5674 5675 5674 5673 5672 5672 5671 5671 5672 5671 5671 5670 5670 5669 5668 5667 5667 5666 5665 5665 5664 5663 5662 5662 5661 5660 5659 5657 5656 5655 5654 5653 5651 5650 5649 5648 5647 5646 5645 5644 5643 5641
5614 5615 5617 5615 5614 5619 5620 5618 5618 5617 5623 5642 5656 5661 5661 5654 5649 5644 5632 5632 5649 5657 5652 5650 5650 5651 5653 5654 5655 5656 5654 5653 5657 5669 5675 5667 5657 5659 5664 5666 5666 5665 5665 5665 5666 5667 5667 5666 5665 5665 5664 5664 5664 5664 5663 5662 5662 5662 5661 5661 5660 5659 5659 5658 5656 5655 5655 5654 5653 5652 5651 5650 5648 5647 5646 5645 5644 5643 5641 5640 5639 5638 5637 5636 5635 5633
5606 5607 5608 5606 5607 5612 5613 5610 5611 5612 5620 5636 5648 5653 5652 5645 5640 5633 5622 5625 5641 5648 5645 5645 5645 5642 5643 5645 5646 5646 5645 5645 5650 5658 5662 5656 5650 5653 5658 5659 5659 5659 5658 5657 5658 5658 5659 5659 5658 5658 5657 5657 5656 5656 5655 5654 5654 5654 5654 5654 5653 5652 5651 5650 5649 5648 5647 5646 5645 5644 5642 5641 5640 5639 5638 5637 5636 5635 5633 5633 5632 5630 5629 5628 5627 5625
5599 5599 5600 5600 5601 5606 5606 5603 5603 5607 5616 5629 5639 5641 5639 5634 5627 5619 5615 5622 5632 5636 5637 5639 5635 5632 5634 5635 5636 5638 5638 5638 5641 5647 5650 5649 5645 5646 5649 5651 5652 5651 5651 5651 5651 5651 5652 5651 5650 5650 5650 5649 5648 5648 5647 5647 5647 5647 5646 5646 5645 5644 5643 5642 5641 5640 5639 5638 5637 5635 5634 5633 5632 5631 5630 5629 5628 5627 5626 5625 5624 5622 5621 5620 5619 5617
5593 5593 5593 5595 5596 5598 5600 5598 5597 5601 5610 5621 5627 5629 5627 5621 5613 5609 5611 5617 5621 5624 5629 5630 5625 5624 5625 5625 5626 5629 5630 5631 5633 5636 5640 5640 5638 5638 5639 5642 5643 5643 5643 5643 5643 5643 5643 5643 5642 5641 5641 5641 5640 5640 5640 5639 5639 5639 5638 5638 5637 5635 5634 5634 5633 5632 5631 5630 5629 5628 5626 5625 5624 5623 5622 5621 5620 5619 5618 5617 5615 5614 5613 5612 5610 5609
5585 5585 5586 5589 5591 5592 5593 5593 5591 5594 5604 5614 5617 5617 5615 5610 5605 5605 5607 5608 5610 5613 5617 5618 5616 5615 5614 5614 5617 5619 5621 5624 5625 5626 5629 5631 5631 5630 5630 5631 5633 5634 5634 5634 5634 5634 5634 5634 5634 5633 5633 5633 5632 5632 5631 5631 5630 5630 5629 5628 5628 5626 5626 5625 5624 5623 5622 5622 5621 5620 5618 5617 5616 5615 5614 5613 5612 5611 5609 5608 5607 5605 5604 5603 5602 5600
5576 5577 5578 5583 5586 5585 5584 5586 5587 5590 5598 5605 5606 5605 5605 5603 5601 5600 5598 5598 5601 5603 5606 5608 5608 5604 5603 5604 5606 5607 5610 5613 5614 5616 5619 5621 5622 5622 5621 5621 5623 5624 5625 5625 5625 5625 5625 5625 5625 5625 5625 5624 5623 5623 5622 5621 5621 5621 5620 5619 5618 5617 5616 5616 5615 5614 5614 5613 5612 5611 5609 5608 5607 5606 5605 5604 5603 5602 5601 5599 5598 5597 5596 5594 5593 5591
5568 5572 5573 5574 5577 5576 5575 5579 5585 5587 5591 5594 5595 5596 5597 5596 5594 5591 5589 5590 5592 5594 5596 5599 5599 5596 5594 5593 5594 5596 5599 5601 5603 5605 5607 5608 5611 5612 5612 5612 5612 5613 5615 5616 5616 5616 5616 5615 5615 5616 5615 5615 5614 5613 5612 5612 5611 5611 5610 5609 5608 5607 5607 5606 5605 5605 5604 5603 5602 5601 5600 5599 5598 5597 5596 5595 5594 5593 5592 5590 5589 5588 5587 5585 5584 5582
5563 5565 5564 5564 5566 5567 5568 5574 5579 5581 5583 5586 5587 5588 5588 5588 5586 5584 5582 5582 5583 5585 5587 5588 5588 5588 5587 5584 5584 5586 5588 5590 5593 5595 5596 5596 5598 5600 5601 5601 5601 5601 5602 5604 5605 5605 5605 5605 5605 5605 5605 5605 5604 5603 5602 5602 5601 5601 5600 5599 5598 5597 5596 5595 5595 5594 5593 5592 5591 5590 5590 5589 5588 5587 5586 5585 5584 5583 5582 5581 5580 5578 5577 5576 5574 5572
5554 5555 5555 5555 5558 5560 5562 5568 5573 5574 5574 5576 5577 5576 5578 5578 5578 5577 5575 5574 5575 5577 5578 5578 5578 5580 5580 5579 5578 5578 5579 5582 5583 5585 5586 5587 5588 5590 5591 5590 5590 5591 5591 5592 5593 5593 5594 5594 5594 5594 5593 5593 5593 5592 5591 5590 5590 5590 5589 5588 5587 5586 5586 5585 5584 5583 5582 5581 5581 5580 5579 5579 5578 5578 5577 5576 5575 5574 5572 5571 5570 5569 5567 5566 5564 5562
5545 5545 5547 5548 5549 5552 5554 5559 5566 5568 5566 5565 5564 5565 5568 5569 5569 5568 5566 5565 5567 5569 5570 5569 5569 5570 5572 5573 5572 5570 5572 5574 5575 5575 5577 5578 5579 5581 5581 5580 5581 5582 5582 5582 5582 5582 5583 5583 5583 5583 5583 5582 5581 5581 5580 5580 5579 5579 5578 5577 5576 5576 5575 5574 5573 5572 5571 5571 5570 5570 5569 5569 5569 5568 5567 5566 5565 5564 5562 5561 5560 5559 5557 5556 5555 5553
5537 5536 5539 5540 5541 5544 5547 5552 5558 5558 5554 5551 5552 5555 5560 5560 5558 5557 5556 5557 5559 5561 5561 5561 5561 5561 5562 5565 5565 5563 5564 5566 5567 5567 5567 5569 5571 5572 5571 5571 5572 5573 5573 5573 5573 5573 5573 5573 5573 5573 5573 5572 5571 5571 5571 5570 5569 5568 5567 5566 5566 5565 5565 5564 5563 5562 5561 5561 5560 5560 5559 5559 5559 5558 5557 5556 5554 5553 5552 5551 5550 5549 5548 5546 5545 5544
5529 5529 5533 5532 5530 5534 5540 5544 5544 5541 5538 5540 5543 5547 5549 5549 5546 5545 5546 5548 5550 5550 5550 5551 5551 5552 5553 5555 5556 5556 5556 5558 5559 5557 5556 5559 5562 5562 5562 5562 5563 5563 5564 5565 5565 5565 5565 5564 5563 5563 5563 5563 5563 5562 5562 5561 5560 5559 5558 5557 5556 5555 5555 5554 5554 5553 5552 5551 5551 5551 5550 5549 5548 5547 5547 5546 5545 5544 5543 5542 5541 5540 5539 5537 5536 5535
5521 5522 5524 5522 5519 5523 5531 5533 5529 5524 5524 5529 5534 5536 5536 5536 5534 5534 5536 5538 5538 5538 5539 5539 5541 5543 5544 5545 5546 5546 5546 5548 5549 5547 5546 5549 5551 5552 5552 5553 5554 5555 5556 5555 5555 5556 5556 5555 5555 5555 5554 5554 5554 5554 5553 5553 5552 5551 5549 5548 5548 5547 5546 5546 5545 5545 5544 5544 5543 5543 5542 5541 5539 5539 5538 5537 5536 5536 5535 5534 5533 5532 5531 5530 5529 5528